This is the latest recevied weather packets stored in our database for station/object G1OCN-WX. If no packets are shown the sender has not sent any weather packets the latest 1 day(s).
| Time | Temp. | Humidity | Pressure | Rain* | Wind** | Luminosity | Snow |
|---|---|---|---|---|---|---|---|
| 1777985734 | 15.56° C | 60% | 1012.9 hPa | 0 mm | 5.81 m/s, 31° | - | - |
| 1777985644 | 15.56° C | 60% | 1012.9 hPa | 0 mm | 5.36 m/s, 29° | - | - |
| 1777985584 | 15.56° C | 62% | 1012.9 hPa | 0 mm | 3.58 m/s, 29° | - | - |
| 1777985524 | 15.56° C | 62% | 1012.9 hPa | 0 mm | 3.58 m/s, 32° | - | - |
| 1777985464 | 15.56° C | 61% | 1012.9 hPa | 0 mm | 5.36 m/s, 36° | - | - |
| 1777985374 | 15° C | 61% | 1012.9 hPa | 0 mm | 4.02 m/s, 23° | - | - |
| 1777985314 | 15° C | 61% | 1012.9 hPa | 0 mm | 5.36 m/s, 14° | - | - |
| 1777985224 | 15° C | 61% | 1012.9 hPa | 0 mm | 5.36 m/s, 30° | - | - |
| 1777985164 | 15° C | 60% | 1012.9 hPa | 0 mm | 4.47 m/s, 28° | - | - |
| 1777985074 | 15° C | 60% | 1012.9 hPa | 0 mm | 4.47 m/s, 27° | - | - |
| 1777985014 | 15° C | 60% | 1012.9 hPa | 0 mm | 4.47 m/s, 47° | - | - |
| 1777984954 | 15.56° C | 59% | 1012.9 hPa | 0 mm | 6.26 m/s, 26° | - | - |
| 1777984864 | 15.56° C | 61% | 1012.9 hPa | 0 mm | 5.81 m/s, 25° | - | - |
| 1777984804 | 15.56° C | 61% | 1012.9 hPa | 0 mm | 5.81 m/s, 16° | - | - |
| 1777984744 | 15.56° C | 61% | 1012.9 hPa | 0 mm | 5.81 m/s, 30° | - | - |
| 1777984654 | 15° C | 60% | 1012.9 hPa | 0 mm | 5.81 m/s, 22° | - | - |
| 1777984594 | 15.56° C | 60% | 1012.9 hPa | 0 mm | 5.81 m/s, 33° | - | - |
| 1777984504 | 15.56° C | 61% | 1012.9 hPa | 0 mm | 5.36 m/s, 32° | - | - |
| 1777984414 | 15.56° C | 60% | 1012.9 hPa | 0 mm | 5.81 m/s, 32° | - | - |
| 1777984354 | 15.56° C | 61% | 1012.9 hPa | 0 mm | 4.47 m/s, 33° | - | - |
| 1777984264 | 15.56° C | 60% | 1012.9 hPa | 0 mm | 4.02 m/s, 14° | - | - |
| 1777984174 | 15° C | 60% | 1013 hPa | 0 mm | 4.47 m/s, 26° | - | - |
| 1777984084 | 15° C | 60% | 1013.1 hPa | 0 mm | 5.81 m/s, 9° | - | - |
| 1777984024 | 15.56° C | 60% | 1013 hPa | 0 mm | 6.71 m/s, 39° | - | - |
| 1777983964 | 15° C | 62% | 1013 hPa | 0 mm | 5.36 m/s, 41° | - | - |
* Rain latest hour (hover to see other rain measurements)
** Current wind speed in m/s (hover to see current wind gust speed)